Regional Weather Roundup
Issued by NWS

Home | Current Version | Previous Version | Text Only | Print | Product List | Glossary Off
Versions: 1 2 3 4 5 6 7 8 9 10 11 12 13 14 15 16 17 18 19 20 21 22 23 24 25 26 27 28 29 30 31 32 33 34 35 36 37 38 39 40 41 42 43 44 45 46 47 48 49 50

000
ASUS43 KDMX 200901
RWRIA

WEATHER ROUNDUP FOR IOWA
NATIONAL WEATHER SERVICE DES MOINES IA
300 AM CST FRI JAN 20 2017

NOTE: "FAIR" INDICATES FEW OR NO CLOUDS BELOW 12,000 FEET WITH NO
SIGNIFICANT WEATHER AND/OR OBSTRUCTIONS TO VISIBILITY.

* - THESE STATIONS ARE NOT NWS STATIONS...THUS NOT UNDER NWS
QUALITY CONTROL.  THEY ALSO DO NOT REPORT WEATHER SUCH
AS PRECIPITATION OR FOG.

IAZ001>003-012>014-020>022-031>034-043>046-201000-
   NORTHWEST IOWA

CITY           SKY/WX    TMP DP  RH WIND       PRES   REMARKS
CARROLL *      FOG       36  36 100 CALM      29.60R VSB 1/2
CHEROKEE *     CLOUDY    36  36 100 S5        29.59S FOG     WCI  32
DENISON *      FOG       37  37 100 CALM      29.58S VSB 1/4
LE MARS *      CLOUDY    37  37 100 CALM      29.59S FOG
ORANGE CITY *  FOG       36  36 100 S3        29.57S VSB 1/2
SHELDON *      FOG       36  36 100 SW8       29.56S VSB 1/4 WCI  29
SIOUX CITY     FOG       38  37  97 SE7       29.58S VSB 1/2 WCI  33
SPENCER        FOG       35  35 100 SE3       29.59R VSB 3/4
STORM LAKE *   FOG       36  36 100 SW7       29.59S VSB 1/4 WCI  30
$$

IAZ055>058-069>071-079>083-090>094-201000-
   SOUTHWEST IOWA

CITY           SKY/WX    TMP DP  RH WIND       PRES   REMARKS
ATLANTIC *     FOG       37  37 100 SW5       29.61R VSB 1/2 WCI  34
AUDUBON *      CLOUDY    37  36  93 CALM      29.60S
CLARINDA *     FOG       37  37 100 CALM      29.63S VSB 3/4
COUNCIL BLFS * FOG       37  37 100 SE5       29.60S VSB 1/4 WCI  34
CRESTON *      FOG       37  37 100 S7        29.61S VSB 1/4 WCI  32
HARLAN  *      CLOUDY    37  37 100 CALM      29.64R FOG
LAMONI         FOG       37  37 100 CALM      29.60S VSB 1/2
RED OAK *      FOG       37  37 100 CALM      29.61S VSB 1/2
SHENANDOAH *   FOG       37  37 100 N6        29.61F VSB 1   WCI  33
$$

IAZ047>049-059>061-072>074-084-201000-
   CENTRAL IOWA

CITY           SKY/WX    TMP DP  RH WIND       PRES   REMARKS
AMES           FOG       35  35 100 SE3       29.62R VSB 1/2
ANKENY *       FOG       36  34  93 CALM      29.63S VSB 1/2
BOONE *        MIX PCPN  34  34 100 SE7       29.60R VSB 1/4 WCI  28
CHARITON *     FOG       36  36 100 CALM      29.60F VSB 1/4
DES MOINES     DRZL/FOG  37  36  96 E3        29.62R VSB 1
GRINNELL*      FOG       35  35  99 E3        29.64R VSB 1/2
KNOXVILLE *    FOG       36  36 100 CALM      29.61F VSB 1/4
MARSHALLTOWN   FOG       34  34 100 E6        29.62S VSB 1/2 WCI  29
NEWTON *       FOG       36  36 100 SE5       29.62S VSB 3/4 WCI  32
PELLA *        FOG       36  36  99 CALM      29.64F VSB 3/4
PERRY *        CLOUDY    35  35  99 SE3       29.62R FOG
$$

IAZ004>006-015-016-023>025-035-036-201000-
   NORTH CENTRAL IOWA

CITY           SKY/WX    TMP DP  RH WIND       PRES   REMARKS
ALGONA *       MIX PCPN  36  36 100 S8        29.61R VSB 1/4 WCI  29
CLARION *      FOG       34  34 100 SE8       29.62R VSB 1/4 WCI  27
ESTHERVILLE    FOG       32  32 100 SE5       29.60R VSB 1/4 WCI  27
FORT DODGE *   CLOUDY    34  32  93 E7        29.62R VSB 1/2 WCI  28
MASON CITY     CLOUDY    34  33  96 SE9       29.63S FOG     WCI  27
FOREST CITY *  CLOUDY    34  34 100 SE9       29.62S FOG     WCI  26
WEBSTER CITY * MIX PCPN  34  34 100 E8        29.60R VSB 1/4 WCI  27
IOWA FALLS *   FOG       35  34  97 CALM      29.63S VSB 1/2
$$

IAZ007>011-017>019-026>030-037>042-050>054-066-201000-
   NORTHEAST IOWA

CITY           SKY/WX    TMP DP  RH WIND       PRES   REMARKS
CEDAR RAPIDS   FOG       35  35 100 E3        29.62F VSB 1
CHARLES CITY * CLOUDY    34  34 100 E7        29.64S FOG     WCI  28
CLINTON *      FOG       36  36 100 E6        29.64S VSB 1/4 WCI  31
DECORAH *      CLOUDY    34  34 100 E5        29.64S FOG     WCI  30
DUBUQUE        FOG       35  35 100 NE7       29.64F VSB 1/4 WCI  29
MONTICELLO *   FOG       36  36 100 CALM      29.64S VSB 1/4
OELWEIN *      FOG       34  34 100 E6        29.64S VSB 3/4 WCI  29
WATERLOO       FOG       34  33  96 E6        29.63S VSB 1   WCI  29
$$

IAZ064-065-067-068-078-201000-
   EAST CENTRAL IOWA

CITY           SKY/WX    TMP DP  RH WIND       PRES   REMARKS
DAVENPORT      FOG       36  35  96 E6        29.64S VSB 1/4 WCI  31
IOWA CITY      CLOUDY    37  36  96 NE3       29.65S FOG
MUSCATINE *    FOG       37  36  93 NE3       29.64S VSB 1/4
QUAD CITIES    FOG       37  36  96 E6        29.63R VSB 1/4 WCI  32
$$

IAZ062-063-075>077-085>089-095>099-201000-
   SOUTHEAST IOWA

CITY           SKY/WX    TMP DP  RH WIND       PRES   REMARKS
BURLINGTON     FOG       38  38 100 W3        29.62R VSB 1/2
FAIRFIELD *    FOG       37  37 100 CALM      29.62S VSB 1/4
FORT MADISON * FOG       37  37 100 CALM      29.63S VSB 1/2
KEOKUK *       FOG       39  39 100 CALM      29.61F VSB 3/4
OSKALOOSA *    FOG       35  35  99 CALM      29.63S VSB 1/2
OTTUMWA        FOG       38  38 100 CALM      29.61F VSB 1/2
WASHINGTON *   FOG       36  36 100 CALM      29.64S VSB 1/4
$$

ABBREVIATIONS USED IN REMARKS
   TC - TEMPERATURES IN CELSIUS
  WCI - WIND CHILL INDEX
   HX - HEAT INDEX
  VSB - VISIBILITY
$$




USA.gov is the U.S. government's official web portal to all federal, state and local government web resources and services.